Regional Weather Roundup
Issued by NWS

Home | Current Version | Previous Version | Graphics & Text | Print | Product List | Glossary On
Versions: 1 2 3 4 5 6 7 8 9 10 11 12 13 14 15 16 17 18 19 20 21 22 23 24 25 26 27
000
ASUS45 KTFX 250710
RWRMT
MONTANA REGIONAL WEATHER ROUNDUP
NATIONAL WEATHER SERVICE GREAT FALLS MT
100 AM MDT MON SEP 25 2017

NOTE: "FAIR" INDICATES FEW OR NO CLOUDS BELOW 12000 FEET WITH NO
SIGNIFICANT WEATHER AND/OR OBSTRUCTIONS TO VISIBILITY.

MTZ001>007-043-250800-
WEST OF THE DIVIDE

CITY           SKY/WX    TMP DP  RH WIND       PRES   REMARKS
KALISPELL      CLOUDY    48  43  82 CALM      30.05S
MISSOULA       CLOUDY    49  41  74 CALM      30.09S
BUTTE          CLOUDY    32  29  88 CALM      30.12S
MULLAN PASS    CLOUDY    40  32  73 VRB3      30.12S
ANACONDA         N/A     39  30  70 CALM      30.10S
DEER LODGE       N/A     37  30  75 CALM      30.12S
EUREKA           N/A     54  37  54 MISG      30.03S
HAMILTON         N/A     46  34  61 S3        30.10S
LIBBY            N/A     48  41  76 CALM      30.04S
PLAINS           N/A     41  36  82 MISG      30.08S
$$

MTZ008-052>055-250800-
SOUTHWEST MONTANA

CITY           SKY/WX    TMP DP  RH WIND       PRES   REMARKS
BOZEMAN        CLEAR     34  31  88 E6        30.11S WCI  29
DILLON         CLEAR     34  28  79 SW5       30.10S
W YELLOWSTONE  CLOUDY    28  27  93 CALM      30.12R
ENNIS          CLEAR     28  25  86 CALM      30.15F
THREE FORKS      N/A     31  28  88 CALM      30.08S
$$

MTZ009-010-012-014-046-048-049-054-250800-
EAST SLOPES AND CENTRAL MONTANA

CITY           SKY/WX    TMP DP  RH WIND       PRES   REMARKS
CUT BANK       CLEAR     40  32  73 W5        30.02F
GREAT FALLS    CLEAR     39  29  67 S8        30.04F
MALMSTROM AFB  CLEAR     37  30  78 S8        30.05S WCI  30
HELENA         CLEAR     41  32  70 CALM      30.08S
BOWMANS CRNR     N/A     41  28  60 SW8       30.04S
CHOTEAU          N/A     39  30  70 SW7       30.05F
FAIRFIELD        N/A     42  26  54 CALM      30.03F
POWER            N/A     35  27  71 S3        30.03F
RAYNESFORD       N/A     34  29  83 CALM      30.06F
ULM              N/A     38  30  73 S5        30.05S
$$

MTZ011-013-016-021-045-047-050-051-250800-
NORTH CENTRAL MONTANA

CITY           SKY/WX    TMP DP  RH WIND       PRES   REMARKS
HAVRE          CLEAR     40  33  76 NW3       30.03F
LEWISTOWN      CLEAR     33  30  88 SE8       30.08R WCI  26
N BAR RANCH      N/A     37  32  81 NW5       30.12S
CHINOOK          N/A     45  36  70 CALM      30.04F
DENTON           N/A     38  34  84 S9        30.04S WCI  32
GEYSER           N/A     38  30  73 SW13      30.05F WCI  30
JUDITH GAP       N/A     38  33  82 SE8       30.09S WCI  32
WINIFRED         N/A     44  33  66 S6        30.06S
$$

MTZ017>020-022>027-061-062-250800-
NORTHEAST MONTANA

CITY           SKY/WX    TMP DP  RH WIND       PRES   REMARKS
GLASGOW        CLEAR     39  36  89 E9        30.11S
JORDAN           N/A     34  30  85 CALM      30.12S
SIDNEY           N/A    N/A N/A N/A MISG        N/A
WOLF POINT     CLEAR     40  37  89 CALM      30.14S
MALTA          CLEAR     45  37  76 CALM      30.08S
PLENTYWOOD       N/A     39  36  87 CALM      30.13S
POPLAR           N/A     39  37  93 CALM      30.14F
SCOBEY           N/A     42  34  73 N1        30.10
$$

MTZ028>42-056>058-250800-
SOUTHCENTRAL AND SOUTHEAST MONTANA

CITY           SKY/WX    TMP DP  RH WIND       PRES   REMARKS
BAKER          CLEAR     38  35  89 CALM      30.14S
BILLINGS       CLOUDY    43  37  79 CALM      30.11S
LIVINGSTON     CLOUDY    34  32  92 SW3       30.10S
MILES CITY     CLOUDY    40  37  89 N3        30.13F
BIG TIMBER     CLOUDY    37  36  93 W5        30.13S
EKALAKA          N/A     39  35  85 CALM      30.09
HARLOWTON        N/A     34  32  93 MISG      30.10S
LAUREL           N/A     41  39  93 N5        30.12S
$$

REGIONAL REPORTS...DAKOTAS

CITY           SKY/WX    TMP DP  RH WIND       PRES   REMARKS
WILLISTON      CLOUDY    46  44  93 SW3       30.14S
MINOT          CLOUDY    48  44  86 W7        30.12R
DICKINSON      CLOUDY    44  39  82 W3        30.11F
BEACH          CLOUDY    34  34 100 CALM      30.17R
CROSBY         CLOUDY    46  45  93 W5        30.14S
TIOGA          CLOUDY    43  43 100 W3        30.14S
BISMARCK       CLOUDY    49  46  90 NW6       30.12R
GRAND FORKS    CLOUDY    50  49  96 NW8       30.05R
FARGO          CLOUDY    51  50  96 NW10      30.04R
BUFFALO SD       N/A     41  39  93 N6        30.06S
$$

REGIONAL REPORTS...WYOMING/IDAHO/WASHINGTON

CITY           SKY/WX    TMP DP  RH WIND       PRES   REMARKS
GILLETTE       LGT RAIN  41  39  93 NE5       30.12S
SHERIDAN       CLOUDY    44  40  85 CALM      30.12S
BUFFALO WY     CLOUDY    40  36  86 SE5       30.13S
CODY           CLOUDY    41  35  79 W3        30.12F
IDAHO FALLS    CLEAR     41  31  67 SE5       30.10R
SALMON         CLOUDY    44  33  65 S6        30.11S
BOISE          CLEAR     48  36  63 CALM      30.05S
SPOKANE        MOCLDY    56  43  61 SW8       30.07S
$$

REGIONAL REPORTS...ALBERTA

CITY           SKY/WX    TMP DP  RH WIND       PRES   REMARKS
EDMONTON       LGT RAIN  54  46  76 SW5       29.89S
LETHBRIDGE     CLOUDY    41  30  65 S8        29.97S
MEDICINE HAT   CLEAR     39  30  70 SW3       29.99F
$$

REGIONAL REPORTS...SASKATCHEWAN

CITY           SKY/WX    TMP DP  RH WIND       PRES   REMARKS
SWIFT CURRENT    N/A     41  32  70 S12       30.05S
REGINA         CLOUDY    43  36  75 S9        30.11F
SASKATOON      CLEAR     41  36  81 S7        30.06S
$$




USA.gov is the U.S. government's official web portal to all federal, state and local government web resources and services.